Cedar Rapids, IA

6:51 PM CST on November 13, 2019 (GMT -0600)
The Eastern Iowa Airport

Weather History for KCID - September, 2019

Change the Weather History Date:

Friday, September 27, 2019

  Actual Average Record
Temperature  
Mean Temperature 65 °F 58 °F  
Max Temperature 70 °F 70 °F 89 °F (1954)
Min Temperature 59 °F 46 °F 31 °F (1942)
Degree Days  
Heating Degree Days 0 8  
Month to date heating degree days 24 112  
Since 1 July heating degree days 32 131  
Cooling Degree Days 0 1  
Month to date cooling degree days 125 69  
Year to date cooling degree days 777 737  
Growing Degree Days 14 (Base 50)    
Moisture  
Dew Point 62 °F    
Average Humidity 78    
Maximum Humidity 100    
Minimum Humidity 56    
Precipitation  
Precipitation 0.31 in 0.09 in 1.10 in (1916)
Month to date precipitation 5.13 2.89  
Year to date precipitation 32.98 28.19  
Sea Level Pressure  
Sea Level Pressure 29.68 in    
Wind  
Wind Speed 8 mph (South)    
Max Wind Speed 16 mph    
Max Gust Speed 26 mph    
Visibility 8 miles    
Events Rain , Thunderstorm    
T = Trace of Precipitation, MM = Missing Value Source: NWS Daily Summary

Daily Weather History Graph

Daily Weather History Graph

Search for Another Location

Airport or City:

Astronomy

Sep. 27, 2019 Rise Set
Actual Time 6:59 AM CDT 6:55 PM CDT
Civil Twilight 6:31 AM CDT 7:23 PM CDT
Nautical Twilight 5:59 AM CDT 7:55 PM CDT
Astronomical Twilight 5:26 AM CDT 8:28 PM CDT
Moon 5:18 AM CDT (9/27) 6:48 PM CDT (9/27)
Length of Visible Light 12h 51m
Length of Day
11h 56m
Waning Crescent, 2% of the Moon is Illuminated
Sep 27
Waning Crescent
Sep 28
New
Oct 5
First Quarter
Oct 13
Full
Oct 21
Last Quarter

Hourly Weather History & Observations

Time (CDT) Temp. Dew Point Humidity Pressure Visibility Wind Dir Wind Speed Gust Speed Precip Events Conditions
12:52 AM 63.0 °F 46.9 °F 56% 29.77 in 10.0 mi South 12.7 mph 25.3 mph N/A   Overcast
1:52 AM 63.0 °F 48.0 °F 58% 29.75 in 10.0 mi South 11.5 mph 20.7 mph N/A   Overcast
2:52 AM 63.0 °F 48.9 °F 60% 29.72 in 10.0 mi South 11.5 mph 20.7 mph 0.00 in   Overcast
3:52 AM 63.0 °F 50.0 °F 63% 29.70 in 10.0 mi South 10.4 mph - N/A   Overcast
4:52 AM 63.0 °F 52.0 °F 67% 29.69 in 10.0 mi South 10.4 mph - N/A   Overcast
5:52 AM 63.0 °F 53.1 °F 70% 29.68 in 10.0 mi SSE 8.1 mph - N/A   Overcast
6:52 AM 63.0 °F 55.0 °F 75% 29.65 in 10.0 mi South 9.2 mph 18.4 mph N/A Thunderstorm Overcast
7:25 AM 60.1 °F 57.9 °F 93% 29.66 in 9.0 mi South 13.8 mph - 0.01 in Rain , Thunderstorm Light Rain
7:31 AM 60.1 °F 59.0 °F 96% 29.66 in 2.5 mi South 15.0 mph 23.0 mph 0.12 in Rain , Thunderstorm Heavy Thunderstorms and Rain
7:52 AM 60.1 °F 59.0 °F 96% 29.64 in 8.0 mi South 9.2 mph - 0.26 in Rain , Thunderstorm Light Thunderstorms and Rain
8:16 AM 60.1 °F 59.0 °F 96% 29.66 in 7.0 mi South 8.1 mph - 0.01 in Rain , Thunderstorm Light Rain
8:37 AM 60.1 °F 59.0 °F 96% 29.66 in 3.0 mi SSE 10.4 mph - 0.04 in Rain Rain
8:49 AM 60.8 °F 59.0 °F 94% 29.65 in 10.0 mi SSE 9.2 mph - 0.04 in Rain Light Rain
8:52 AM 60.1 °F 59.0 °F 96% 29.65 in 10.0 mi SSE 10.4 mph - 0.04 in   Overcast
9:50 AM 60.8 °F 60.8 °F 100% 29.66 in 10.0 mi SSE 10.4 mph - N/A   Overcast
9:52 AM 62.1 °F 61.0 °F 96% 29.65 in 10.0 mi SSE 9.2 mph - N/A   Overcast
10:52 AM 63.0 °F 62.1 °F 97% 29.65 in 10.0 mi South 10.4 mph - N/A   Overcast
11:52 AM 64.0 °F 63.0 °F 96% 29.65 in 10.0 mi South 8.1 mph - N/A   Overcast
12:52 PM 66.0 °F 64.9 °F 96% 29.64 in 10.0 mi South 8.1 mph - N/A   Overcast
1:52 PM 66.9 °F 64.9 °F 93% 29.64 in 10.0 mi SSW 6.9 mph - N/A   Overcast
2:28 PM 66.9 °F 66.0 °F 97% 29.64 in 8.0 mi South 4.6 mph - N/A   Overcast
2:52 PM 68.0 °F 66.0 °F 93% 29.63 in 10.0 mi South 4.6 mph - N/A   Overcast
2:54 PM 68.0 °F 66.0 °F 93% 29.64 in 10.0 mi South 4.6 mph - N/A   Overcast
3:22 PM 69.1 °F 66.9 °F 93% 29.64 in 10.0 mi South 4.6 mph - 0.00 in Rain Light Rain
3:50 PM 69.8 °F 66.2 °F 88% 29.66 in 10.0 mi Calm Calm - 0.00 in   Overcast
3:52 PM 69.1 °F 66.9 °F 93% 29.66 in 10.0 mi SSW 3.5 mph - 0.00 in   Overcast
4:52 PM 69.1 °F 66.9 °F 93% 29.66 in 10.0 mi SSE 4.6 mph - 0.00 in   Overcast
5:50 PM 69.8 °F 68.0 °F 94% 29.68 in 3.0 mi NW 3.5 mph - 0.00 in Rain Light Rain
5:52 PM 69.1 °F 68.0 °F 96% 29.68 in 3.0 mi NW 3.5 mph - 0.00 in Rain Light Rain
6:15 PM 68.0 °F 68.0 °F 100% 29.69 in 1.8 mi NNW 3.5 mph - 0.00 in   Overcast
6:21 PM 68.0 °F 68.0 °F 100% 29.69 in 2.0 mi NW 5.8 mph - 0.00 in Rain Light Rain
6:25 PM 68.0 °F 68.0 °F 100% 29.68 in 3.0 mi NW 6.9 mph - 0.00 in Rain Light Rain
6:38 PM 68.0 °F 66.9 °F 96% 29.68 in 8.0 mi North 5.8 mph - 0.00 in   Overcast
6:52 PM 68.0 °F 68.0 °F 100% 29.66 in 4.0 mi Calm Calm - 0.01 in Rain Light Rain
7:01 PM 68.0 °F 68.0 °F 100% 29.69 in 4.0 mi NNW 9.2 mph - 0.00 in   Overcast
7:10 PM 68.0 °F 68.0 °F 100% 29.69 in 4.0 mi North 8.1 mph - 0.00 in   Overcast
7:52 PM 66.0 °F 64.9 °F 96% 29.71 in 10.0 mi North 11.5 mph - 0.00 in   Overcast
8:52 PM 64.0 °F 63.0 °F 96% 29.73 in 10.0 mi NNE 10.4 mph - N/A   Overcast
9:07 PM 64.0 °F 63.0 °F 96% 29.73 in 10.0 mi NNE 12.7 mph - N/A   Overcast
9:52 PM 64.0 °F 62.1 °F 93% 29.76 in 10.0 mi NNE 11.5 mph - N/A   Overcast
10:52 PM 63.0 °F 61.0 °F 93% 29.79 in 10.0 mi NE 8.1 mph - N/A   Clear
11:52 PM 63.0 °F 60.1 °F 90% 29.86 in 10.0 mi NE 8.1 mph - N/A   Clear